星链-5528 (STARLINK-5528 )

导读

STARLINK-5528是美国太空探索技术公司(SpaceX)星链(Starlink)计划的卫星,该卫星于2023年6月12日发射入轨,是星链互联网卫星星座的组成部分。星链旨在为全球用户提供高速、低延迟的宽带互联网服务,该卫星承担了扩展星座覆盖范围、提升网络容量的任务。

Basic Information
目录编号:
56890
目录名称:
STARLINK-5528
国际标识:
2023-083Q
轨道中心:
EARTH
卫星名称:
星链-5528
卫星全名:
星链-5528 (STARLINK-5528 )
卫星状态:
在轨 (已飞行1188 天)
发射日期:
2023-06-12 UTC
国别 :
美国 (US)
星等 :
--
This satellite is enrolled in the Space Conjunction Data Service (SCDS) and the current flight risk assessment level is: High Risk
Orbit Information
数据来源 国际轨道数据
星历时间: 2026-09-12T06:14:30+0800
17小时前
查看轨道信息
半长轴: 6861.206km
偏心率: 0.0000968
轨道倾角: 43.002°
近地点辐角 258.964°
升交点赤经 116.777°
平近点角 101.111°
近地点: 482.404km
远地点: 483.734km
周期: 94.267分钟
每日圈数: 15.275735
Detailed Information
固有亮度:
5
最大亮度:
2.4
卫星平台:
Starlink v1.5
覆盖范围:
全球
运营商:
太空探索技术公司
运营商所在国:
美国
制造商(研发单位):
太空探索技术公司
制造商所在国:
美国
使用方式:
暂无
Satellite Introduction
星链(Starlink)计划是由太空探索技术公司(SpaceX)提出的一个巨型低轨卫星互联网星座项目,计划在2019年至2024年间在太空搭建由约1.2万颗卫星组成的“星链”网络,其中1584颗将部署在地球上空550千米处的近地轨道,并从2020年开始工作。该卫星仍在工作。
2D Orbit Map
3D Orbit Map
Orbit Altitude Analysis Chart
Orbit Inclination Analysis Chart
Orbit Comprehensive Analysis Chart
View Comprehensive Chart
Conjunction Data List
Event ID Objects TCA Miss Dist (km) Collision Risk Probability Collision Risk Index (CRI) Action
CDM_260914-064905-689006-645921
2026-09-14T
06:49:00+0000
0.175 km
中距离
7.931944E-4 高风险 0.93
CDM_260914-183505-689006-645921
2026-09-14T
18:35:08+0000
1.201 km
极远距离
1.096731E-5 中风险 0.56
CDM_260909-223305-689006-630722
OBJECT Q (66307)
2026-09-09T
22:33:59+0000
2.382 km
极远距离
1.421199E-6 低风险 0.38
CDM_260914-082305-689006-645921
2026-09-14T
08:23:09+0000
2.871 km
极远距离
1.137331E-6 低风险 0.36
Miss Distance Evolution Trend with All Objects
Collision Probability Evolution Trend with All Objects